Powrót do katalogu

STARLINK-34528

AktywnyŁącznośćVLEO
NORAD 64479·PAYLOAD·🇺🇸 United States

Wystrzelony Jun 23, 2025 z Cape Canaveral Space Force Station

Loading…

Następne Przeloty (najbliższe 24 godziny)

TLE

ŚwieżeSource: CelesTrak SupGP

Epoka: Sep 14, 2026, 22:53 UTC

1 64479C 25133H   26257.95395833  .00149800  00000+0  44220-2 0  2573
2 64479  53.1580 311.8564 0001051  89.1203  59.6800 15.34344356    19

Śledź STARLINK-34528 w czasie rzeczywistym z AllMySat

Download on the App Store